CW9236 Weather Reports


Display with metric or nautical units.
time (UTC)temp
F
wind
direction
speed
MPH
gust
MPH
rain 1hr
in
rain 24hr
in
rain mn
in
humidity
%
barometer
mb
20260510092504 73 73 0.0 3.0 0.00 0.00 0.00 92 1011.0
20260510092004 73 76 1.0 3.0 0.00 0.00 0.00 91 1011.0
20260510091505 73 67 0.0 3.0 0.00 0.00 0.00 91 1011.0
20260510091004 73 69 0.0 2.0 0.00 0.00 0.00 91 1011.0
20260510090016 73 69 0.0 2.0 0.00 0.00 0.00 91 1011.0
20260510085007 74 71 0.0 2.0 0.00 0.00 0.00 91 1011.1
20260510084522 74 71 1.0 2.0 0.00 0.00 0.00 91 1011.2
20260510084007 74 71 0.0 2.0 0.00 0.00 0.00 91 1011.2
20260510083510 74 71 0.0 2.0 0.00 0.00 0.00 91 1011.2
20260510082506 74 71 0.0 2.0 0.00 0.00 0.00 90 1011.1
20260510082004 74 76 0.0 2.0 0.00 0.00 0.00 90 1011.1
20260510081507 74 69 0.0 2.0 0.00 0.00 0.00 90 1011.0
20260510081004 74 83 0.0 2.0 0.00 0.00 0.00 90 1011.1
20260510080506 74 68 0.0 2.0 0.00 0.00 0.00 90 1011.0
20260510080012 74 79 0.0 2.0 0.00 0.00 0.00 90 1011.1
20260510075507 74 77 0.0 2.0 0.00 0.00 0.00 90 1011.1
20260510075012 74 92 0.0 2.0 0.00 0.00 0.00 90 1011.2
20260510074521 74 74 0.0 2.0 0.00 0.00 0.00 89 1011.2
20260510074010 74 66 0.0 2.0 0.00 0.00 0.00 89 1011.2
20260510073510 74 76 0.0 1.0 0.00 0.00 0.00 89 1011.3
20260510072504 74 76 0.0 0.0 0.00 0.00 0.00 89 1011.5
20260510072004 74 76 0.0 0.0 0.00 0.00 0.00 89 1011.6
20260510071510 74 76 0.0 0.0 0.00 0.00 0.00 89 1011.5
20260510070506 75 76 0.0 2.0 0.00 0.00 0.00 88 1011.5
20260510070014 75 76 0.0 2.0 0.00 0.00 0.00 88 1011.6
20260510065509 75 67 0.0 2.0 0.00 0.00 0.00 88 1011.5
20260510065009 75 84 0.0 2.0 0.00 0.00 0.00 88 1011.4
20260510064520 75 68 0.0 2.0 0.00 0.00 0.00 88 1011.4
20260510064009 75 77 0.0 3.0 0.00 0.00 0.00 88 1011.4
20260510063512 75 91 1.0 3.0 0.00 0.00 0.00 88 1011.4
20260510063009 75 85 0.0 3.0 0.00 0.00 0.00 88 1011.5
20260510062506 75 93 0.0 2.0 0.00 0.00 0.00 88 1011.4
20260510062005 75 94 0.0 2.0 0.00 0.00 0.00 88 1011.5
20260510061511 75 88 0.0 7.0 0.00 0.00 0.00 88 1011.5
20260510061007 75 88 1.0 7.0 0.00 0.00 0.00 88 1011.5
20260510060508 75 83 2.0 6.0 0.00 0.00 0.00 88 1011.5
20260510060017 75 96 0.0 4.0 0.00 0.00 0.00 88 1011.4
20260510055513 75 78 1.0 6.0 0.00 0.00 0.00 88 1011.4
20260510055010 75 84 1.0 6.0 0.00 0.00 0.00 88 1011.5
20260510054524 75 86 1.0 3.0 0.00 0.00 0.00 88 1011.5
20260510054012 75 65 0.0 3.0 0.00 0.00 0.00 88 1011.6
20260510053511 75 90 0.0 4.0 0.00 0.00 0.00 87 1011.7
20260510053007 75 91 0.0 4.0 0.00 0.00 0.00 87 1011.7
20260510052504 75 76 1.0 4.0 0.00 0.00 0.00 87 1011.7
20260510052007 76 100 1.0 4.0 0.00 0.00 0.00 87 1011.7
20260510051516 76 86 1.0 4.0 0.00 0.00 0.00 87 1011.7
20260510051005 76 84 0.0 3.0 0.00 0.00 0.00 87 1011.7
20260510050509 76 78 1.0 3.0 0.00 0.00 0.00 87 1011.8
20260510050020 76 89 1.0 3.0 0.00 0.00 0.00 87 1011.7
20260510045510 76 105 1.0 4.0 0.00 0.00 0.00 87 1011.6
20260510045011 76 81 1.0 4.0 0.00 0.00 0.00 87 1011.6
20260510044532 76 91 0.0 4.0 0.00 0.00 0.00 87 1011.7
20260510044012 76 84 1.0 4.0 0.00 0.00 0.00 86 1011.7
20260510041008 77 86 2.0 8.0 0.00 0.00 0.00 85 1011.9
20260510040509 77 94 2.0 8.0 0.00 0.00 0.00 84 1011.8
20260510040020 77 97 2.0 10.0 0.00 0.00 0.00 84 1011.9
20260510035507 77 80 3.0 12.0 0.00 0.00 0.00 83 1012.0
20260510035007 78 92 4.0 12.0 0.00 0.00 0.00 83 1012.0
20260510034524 78 84 2.0 10.0 0.00 0.00 0.00 82 1012.1
20260510034010 78 80 3.0 10.0 0.00 0.00 0.00 81 1012.1
20260510033508 78 86 3.0 12.0 0.00 0.00 0.00 79 1012.2
20260510033009 79 97 4.0 12.0 0.00 0.00 0.00 77 1012.1
20260510032507 79 68 2.0 6.0 0.00 0.00 0.00 69 1012.1
20260510032009 79 102 2.0 6.0 0.00 0.00 0.00 68 1012.0
20260510031519 79 71 1.0 7.0 0.00 0.00 0.00 69 1012.0
20260510031008 79 86 2.0 7.0 0.00 0.00 0.00 69 1012.0
20260510030509 79 75 2.0 10.0 0.00 0.00 0.00 69 1012.1
20260510030034 79 84 1.0 10.0 0.00 0.00 0.00 70 1012.0
20260510025512 79 80 2.0 7.0 0.00 0.00 0.00 70 1011.7
20260510025014 78 72 2.0 5.0 0.00 0.00 0.00 70 1011.5
20260510024526 78 88 1.0 4.0 0.00 0.00 0.00 70 1011.3
20260510024004 78 90 0.0 2.0 0.00 0.00 0.00 70 1011.1
20260510023507 78 79 0.0 3.0 0.00 0.00 0.00 69 1010.9
20260510023013 78 78 0.0 3.0 0.00 0.00 0.00 69 1010.8
20260510022506 78 82 0.0 2.0 0.00 0.00 0.00 67 1010.4
20260510022008 78 89 0.0 3.0 0.00 0.00 0.00 65 1010.4
20260510021522 77 90 1.0 3.0 0.00 0.00 0.00 63 1010.3
20260510021008 77 82 0.0 1.0 0.00 0.00 0.00 63 1010.1
20260510020507 77 80 0.0 2.0 0.00 0.00 0.00 64 1009.9
20260510020028 77 80 0.0 2.0 0.00 0.00 0.00 64 1009.7
20260510015509 77 76 0.0 1.0 0.00 0.00 0.00 63 1009.5
20260510015011 77 76 0.0 1.0 0.00 0.00 0.00 65 1009.4
20260510014528 77 76 0.0 0.0 0.00 0.00 0.00 61 1009.2
20260510014005 78 82 0.0 0.0 0.00 0.00 0.00 60 1009.1
20260510013512 78 82 0.0 1.0 0.00 0.00 0.00 60 1009.2
20260510013015 79 82 0.0 1.0 0.00 0.00 0.00 60 1009.4
20260510012509 78 82 0.0 1.0 0.00 0.00 0.00 59 1009.4
20260510012008 79 78 0.0 2.0 0.00 0.00 0.00 58 1009.3
20260510011520 79 82 0.0 2.0 0.00 0.00 0.00 58 1009.3
20260510011013 79 74 0.0 3.0 0.00 0.00 0.00 57 1009.3
20260510010507 79 66 1.0 4.0 0.00 0.00 0.00 57 1009.2
20260510010026 80 80 1.0 4.0 0.00 0.00 0.00 55 1009.2
20260510005512 80 76 1.0 4.0 0.00 0.00 0.00 54 1009.0
20260510005010 80 70 1.0 4.0 0.00 0.00 0.00 54 1008.9
20260510004528 80 70 1.0 3.0 0.00 0.00 0.00 54 1008.9
20260510004010 81 88 1.0 4.0 0.00 0.00 0.00 53 1008.8
20260510003508 80 76 1.0 7.0 0.00 0.00 0.00 52 1008.7
20260510003024 80 67 2.0 7.0 0.00 0.00 0.00 51 1008.9
20260510002509 80 57 2.0 9.0 0.00 0.00 0.00 53 1009.1
20260510002011 80 67 2.0 9.0 0.00 0.00 0.00 54 1009.1
20260510001522 82 74 3.0 9.0 0.00 0.00 0.00 56 1009.0
20260510001012 84 80 4.0 8.0 0.00 0.00 0.00 57 1008.8
20260510000511 86 279 1.0 4.0 0.00 0.00 0.00 63 1008.7
20260510000026 86 68 1.0 5.0 0.00 0.00 0.00 64 1008.7
20260509235510 86 75 2.0 5.0 0.00 0.00 0.00 65 1008.6
20260509235012 86 247 0.0 1.0 0.00 0.00 0.00 66 1008.4
20260509234008 87 247 0.0 1.0 0.00 0.00 0.00 64 1008.3
20260509233025 87 247 0.0 2.0 0.00 0.00 0.00 63 1008.4
20260509231010 86 247 0.0 0.0 0.00 0.00 0.00 66 1008.2
20260509230509 86 247 0.0 1.0 0.00 0.00 0.00 64 1008.2
20260509230026 87 247 0.0 1.0 0.00 0.00 0.00 63 1008.2
20260509225507 87 247 0.0 1.0 0.00 0.00 0.00 62 1008.1
20260509225010 87 247 0.0 1.0 0.00 0.00 0.00 61 1008.0
20260509224517 87 247 0.0 1.0 0.00 0.00 0.00 63 1008.0
20260509223511 87 247 0.0 2.0 0.00 0.00 0.00 63 1008.1
20260509222508 88 247 1.0 3.0 0.00 0.00 0.00 60 1008.1
20260509222011 88 247 0.0 2.0 0.00 0.00 0.00 61 1008.1
20260509221530 88 247 0.0 3.0 0.00 0.00 0.00 62 1007.9
20260509221015 88 247 1.0 4.0 0.00 0.00 0.00 60 1008.0
20260509220515 88 247 1.0 4.0 0.00 0.00 0.00 60 1008.0
20260509220029 88 247 1.0 4.0 0.00 0.00 0.00 60 1007.9
20260509215508 88 246 0.0 3.0 0.00 0.00 0.00 61 1008.0
20260509215012 88 108 0.0 3.0 0.00 0.00 0.00 60 1008.1
20260509214518 88 246 0.0 3.0 0.00 0.00 0.00 59 1008.0
20260509213509 88 246 0.0 3.0 0.00 0.00 0.00 60 1007.9
20260509213025 88 245 0.0 4.0 0.00 0.00 0.00 60 1008.0
20260509212511 88 245 0.0 4.0 0.00 0.00 0.00 59 1008.1
20260509212011 88 79 0.0 2.0 0.00 0.00 0.00 63 1008.1
20260509211534 87 83 0.0 2.0 0.00 0.00 0.00 62 1008.2
20260509211008 87 94 0.0 2.0 0.00 0.00 0.00 60 1008.2
20260509210516 88 130 0.0 3.0 0.00 0.00 0.00 61 1008.2
20260509210027 88 123 0.0 3.0 0.00 0.00 0.00 60 1008.2
20260509205511 88 246 0.0 2.0 0.00 0.00 0.00 62 1008.4
20260509205007 88 246 0.0 2.0 0.00 0.00 0.00 62 1008.5
20260509204520 87 246 0.0 3.0 0.00 0.00 0.00 62 1008.7
20260509204009 87 246 0.0 4.0 0.00 0.00 0.00 63 1008.8
20260509203508 87 246 1.0 4.0 0.00 0.00 0.00 61 1008.9
20260509203026 87 344 0.0 4.0 0.00 0.00 0.00 66 1008.9
20260509202508 87 107 0.0 4.0 0.00 0.00 0.00 66 1008.9
20260509202006 86 285 0.0 3.0 0.00 0.00 0.00 64 1009.0
20260509201511 86 285 0.0 4.0 0.00 0.00 0.00 64 1009.0
20260509201003 87 285 0.0 4.0 0.00 0.00 0.00 64 1008.9
20260509200504 86 284 0.0 4.0 0.00 0.00 0.00 65 1009.0
20260509200015 86 282 0.0 6.0 0.00 0.00 0.00 66 1009.1
20260509195513 86 281 0.0 6.0 0.00 0.00 0.00 66 1009.2
20260509195008 86 285 2.0 4.0 0.00 0.00 0.00 65 1009.1
20260509194524 86 287 0.0 4.0 0.00 0.00 0.00 69 1009.2
20260509194011 86 284 0.0 4.0 0.00 0.00 0.00 67 1009.2
20260509193503 87 283 1.0 3.0 0.00 0.00 0.00 67 1009.3
20260509193007 87 319 0.0 4.0 0.00 0.00 0.00 70 1009.3
20260509192507 86 280 0.0 4.0 0.00 0.00 0.00 71 1009.3
20260509192009 86 280 1.0 4.0 0.00 0.00 0.00 70 1009.5
20260509191516 87 279 0.0 3.0 0.00 0.00 0.00 70 1009.6
20260509191011 85 279 0.0 6.0 0.00 0.00 0.00 72 1009.6
20260509190019 84 279 0.0 4.0 0.00 0.00 0.00 71 1009.5
20260509184530 85 246 1.0 3.0 0.00 0.00 0.00 68 1009.7
20260509184008 86 246 0.0 2.0 0.00 0.00 0.00 74 1009.9
20260509181514 84 80 1.0 3.0 0.00 0.00 0.00 73 1010.1
20260509181011 83 66 1.0 3.0 0.00 0.00 0.00 74 1010.3
20260509180508 84 284 1.0 3.0 0.00 0.00 0.00 72 1010.5
20260509175508 83 338 0.0 3.0 0.00 0.00 0.00 74 1010.6
20260509175008 83 61 0.0 3.0 0.00 0.00 0.00 76 1010.8
20260509174528 83 82 1.0 3.0 0.00 0.00 0.00 75 1010.8
20260509174005 83 82 1.0 3.0 0.00 0.00 0.00 74 1010.8
20260509173506 83 69 1.0 4.0 0.00 0.00 0.00 74 1010.7
20260509173024 83 53 1.0 6.0 0.00 0.00 0.00 76 1010.6
20260509172512 83 74 2.0 6.0 0.00 0.00 0.00 76 1010.8
20260509172008 83 87 0.0 4.0 0.00 0.00 0.00 77 1010.8
20260509171516 84 47 1.0 5.0 0.00 0.00 0.00 73 1010.8
20260509171009 83 57 2.0 5.0 0.00 0.00 0.00 77 1010.6
20260509170506 84 65 1.0 3.0 0.00 0.00 0.00 76 1010.5
20260509170023 83 84 1.0 3.0 0.00 0.00 0.00 78 1010.6
20260509165510 82 72 0.0 3.0 0.00 0.00 0.00 79 1010.6
20260509165008 81 63 1.0 3.0 0.00 0.00 0.00 80 1010.5
20260509164525 81 71 1.0 4.0 0.00 0.00 0.00 80 1010.6
20260509164006 80 85 1.0 4.0 0.00 0.00 0.00 83 1010.7
20260509163510 80 73 1.0 4.0 0.00 0.00 0.00 82 1010.8
20260509163015 80 253 1.0 3.0 0.00 0.00 0.00 84 1010.9
20260509162507 79 253 0.0 2.0 0.00 0.00 0.00 86 1010.9
20260509162008 78 253 0.0 2.0 0.00 0.00 0.00 86 1011.0
20260509161520 78 253 0.0 2.0 0.00 0.00 0.00 87 1011.2
20260509161009 78 253 0.0 2.0 0.00 0.00 0.00 87 1011.3
20260509160507 78 253 0.0 2.0 0.00 0.00 0.00 87 1011.2
20260509160022 77 253 0.0 2.0 0.00 0.00 0.00 87 1011.3
20260509155510 77 253 0.0 3.0 0.00 0.00 0.00 87 1011.4
20260509155010 77 253 0.0 3.0 0.00 0.00 0.00 87 1011.3
20260509154526 77 253 0.0 2.0 0.00 0.00 0.00 87 1011.3
20260509154009 77 253 0.0 3.0 0.00 0.00 0.00 87 1011.3
20260509153506 77 253 0.0 3.0 0.00 0.00 0.00 87 1011.4
20260509153015 77 253 0.0 0.0 0.00 0.00 0.00 87 1011.4
20260509152512 77 252 0.0 1.0 0.00 0.00 0.00 87 1011.4
20260509152008 77 252 0.0 3.0 0.00 0.00 0.00 87 1011.4
20260509151522 77 252 1.0 3.0 0.00 0.00 0.00 88 1011.2
20260509151006 77 253 0.0 2.0 0.00 0.00 0.00 88 1011.1
20260509150509 77 253 0.0 2.0 0.00 0.00 0.00 89 1011.1
20260509150022 77 136 0.0 1.0 0.00 0.00 0.00 89 1011.0
20260509145510 77 144 0.0 1.0 0.00 0.00 0.00 90 1010.8
20260509145011 76 148 0.0 1.0 0.00 0.00 0.00 90 1010.8
20260509144510 76 146 0.0 1.0 0.00 0.00 0.00 91 1010.6
20260509144008 76 198 0.0 0.0 0.00 0.00 0.00 92 1010.5
20260509143508 76 198 0.0 0.0 0.00 0.00 0.00 93 1010.6
20260509143018 75 223 0.0 0.0 0.00 0.00 0.00 94 1010.5
20260509142508 75 226 0.0 1.0 0.00 0.00 0.00 94 1010.6
20260509142004 75 222 0.0 1.0 0.00 0.00 0.00 94 1010.7
20260509141508 75 179 0.0 0.0 0.00 0.00 0.00 94 1010.6
20260509141007 75 158 0.0 0.0 0.00 0.00 0.00 94 1010.4
20260509140503 75 146 0.0 0.0 0.00 0.00 0.00 94 1010.3
20260509140009 75 146 0.0 1.0 0.00 0.00 0.00 94 1010.0
20260509135008 75 144 0.0 1.0 0.00 0.00 0.00 94 1010.6
20260509134517 75 144 0.0 1.0 0.00 0.00 0.00 94 1010.6
20260509134009 75 144 0.0 1.0 0.00 0.00 0.00 94 1010.7
20260509133516 75 144 0.0 1.0 0.00 0.00 0.00 94 1010.7
20260509133006 75 144 0.0 1.0 0.00 0.00 0.00 94 1010.7
20260509130504 74 288 0.0 2.0 0.00 0.00 0.00 94 1011.3
20260509125508 74 59 0.0 2.0 0.00 0.00 0.00 94 1011.0
20260509125009 74 59 0.0 2.0 0.00 0.00 0.00 94 1010.8
20260509124007 74 57 0.0 1.0 0.00 0.00 0.00 94 1010.8
20260509123007 74 51 0.0 1.0 0.00 0.00 0.00 94 1010.7
20260509122505 74 49 0.0 1.0 0.00 0.00 0.00 94 1010.7
20260509122004 73 32 0.0 1.0 0.00 0.00 0.00 94 1010.7
20260509121506 73 32 0.0 1.0 0.00 0.00 0.00 94 1010.6
20260509121003 73 30 0.0 0.0 0.00 0.00 0.00 94 1010.6
20260509120507 73 30 0.0 0.0 0.00 0.00 0.00 94 1010.6
20260509120012 73 30 0.0 0.0 0.00 0.00 0.00 94 1010.5
20260509115504 73 28 0.0 0.0 0.00 0.00 0.00 94 1010.2
20260509115010 73 28 0.0 0.0 0.00 0.00 0.00 94 1010.2
20260509114519 73 288 0.0 0.0 0.00 0.00 0.00 94 1010.4
20260509114011 74 288 0.0 0.0 0.00 0.00 0.00 94 1010.6
20260509113504 73 288 0.0 0.0 0.00 0.00 0.00 94 1010.6
20260509113007 74 288 0.0 0.0 0.00 0.00 0.00 94 1010.7
20260509112503 74 288 0.0 0.0 0.00 0.00 0.00 94 1010.8
20260509112004 74 288 0.0 0.0 0.00 0.00 0.00 94 1010.9
20260509111509 74 288 0.0 0.0 0.00 0.00 0.00 94 1010.8
20260509111006 73 300 0.0 0.0 0.00 0.00 0.00 94 1010.7
20260509110504 74 300 0.0 2.0 0.00 0.00 0.00 94 1010.7
20260509110021 74 319 0.0 2.0 0.00 0.00 0.00 94 1010.8
20260509105508 74 288 0.0 2.0 0.00 0.00 0.00 94 1010.9
20260509105009 73 289 0.0 2.0 0.00 0.00 0.00 94 1010.7
20260509104522 73 288 0.0 0.0 0.00 0.00 0.00 93 1010.4
20260509104009 73 288 0.0 1.0 0.00 0.00 0.00 93 1010.2
20260509103502 74 288 0.0 2.0 0.00 0.00 0.00 93 1010.2
20260509103009 74 288 0.0 2.0 0.00 0.00 0.00 93 1010.4
20260509102504 74 290 0.0 2.0 0.00 0.00 0.00 93 1010.3
20260509102008 74 287 0.0 2.0 0.00 0.00 0.00 93 1010.3
20260509101511 74 302 0.0 2.0 0.00 0.00 0.00 93 1010.2
20260509101004 74 75 0.0 1.0 0.00 0.00 0.00 93 1010.1
20260509100507 74 75 0.0 1.0 0.00 0.00 0.00 93 1009.9
20260509100023 74 75 0.0 2.0 0.00 0.00 0.00 93 1009.5
20260509095507 74 82 0.0 2.0 0.00 0.00 0.00 93 1009.4
20260509095014 74 61 0.0 1.0 0.00 0.00 0.00 93 1009.5
20260509094524 74 61 0.0 0.0 0.00 0.00 0.00 93 1009.6
20260509094009 74 61 0.0 0.0 0.00 0.00 0.00 93 1009.7
20260509093504 74 61 0.0 0.0 0.00 0.00 0.00 93 1009.8